Location: Okie-Tex Star Party
(36.8978°N, 102.9520°W)
Time: 23:14:24
(UTC-05:00)

Amateur Radio Satellites - All Passes

Search period start: 24 October 2014 22:44
Search period end: 25 October 2014 22:44
Location: Okie-Tex Star Party, 36.8978°N, 102.9520°W

Satellite Date Start Highest point End Downlink Frequencies (MHz)
Time Altitude Azimuth
RS-15 24 Oct 22:45:22 22:55:57 55° 111° (ESE) 23:06:24 29.354 - 29.394 USB, Beacon 29.352 USB
HO-68 24 Oct 22:49:56 22:56:38 43° 261° (W) 23:03:25 435.675 MHz FM
FUNcube-1 24 Oct 23:00:28 23:04:50 44° 73° (ENE) 23:09:09 145.950 - 145.970 MHz USB
Oscar 11 24 Oct 23:02:47 23:07:05 69° 259° (WSW) 23:11:24 145.825 FM, Beacon 2401.500 USB
SO-50 24 Oct 23:18:17 23:23:09 82° 241° (WSW) 23:28:02 436.795 FM
KITSAT 1 24 Oct 23:22:10 23:30:05 61° 247° (WSW) 23:37:58 435.175 FM
MaSat-1 24 Oct 23:50:03 23:52:56 18° 106° (ESE) 23:55:41 437.345 MHz
ZACube-1 24 Oct 23:51:55 23:56:20 47° 261° (W) 00:00:44 437.345 MHz
UKube-1 24 Oct 23:59:33 00:01:51 14° 267° (W) 00:04:10 145.840 MHz, 145.915 MHz
FUNcube-1 25 Oct 00:38:40 00:41:22 15° 267° (W) 00:44:04 145.950 - 145.970 MHz USB
UOSAT-12 25 Oct 00:42:05 00:46:46 65° 58° (ENE) 00:51:22 437.025 FM, 437.400 FM
RS-15 25 Oct 00:58:19 01:08:31 42° 313° (NW) 01:18:45 29.354 - 29.394 USB, Beacon 29.352 USB
Oscar 10/S400 25 Oct 01:06:26 02:15:34 33° 234° (SW) 06:28:15 145.825 - 145.975 CW/USB, Beacon 145.810 USB
MaSat-1 25 Oct 01:24:39 01:28:23 32° 298° (WNW) 01:31:50 437.345 MHz
UOSAT-12 25 Oct 02:24:29 02:26:18 12° 253° (WSW) 02:28:07 437.025 FM, 437.400 FM
AO-Echo 25 Oct 02:39:13 02:41:53 14° 91° (E) 02:44:32 ?
Oscar 16 25 Oct 02:43:36 02:48:05 30° 97° (E) 02:52:31 437.025 USB, Beacon 2401.1428
JAS-1B 25 Oct 02:45:57 02:52:13 35° 99° (E) 02:59:29 435.800 - 435.900 CW/SSB
Uribyol 2 25 Oct 03:04:08 03:07:48 19° 94° (E) 03:11:27 436.500 FM
ITAMSAT 1 25 Oct 03:10:03 03:13:55 21° 94° (E) 03:17:45 435.822 SSB
RS-15 25 Oct 03:19:05 03:25:04 16° 345° (NNW) 03:31:07 29.354 - 29.394 USB, Beacon 29.352 USB
Gurwin Techsat 1B 25 Oct 03:31:11 03:34:38 17° 93° (E) 03:38:04 435.225 FM
Oscar 19 25 Oct 03:36:33 03:41:40 82° 285° (WNW) 03:46:47 437.125 CW, 437.150 USB
TMSAT-1 25 Oct 03:42:29 03:45:43 16° 92° (E) 03:48:56 436.925 FM
AO-27 25 Oct 03:54:44 03:59:54 59° 101° (E) 04:05:02 436.795 MHz FM
AO-Echo 25 Oct 04:15:45 04:21:02 65° 286° (WNW) 04:26:16 ?
Sapphire 25 Oct 04:22:23 04:27:24 41° 110° (ESE) 04:32:28 437.095 MHz 1200 baud AX-25 AFSK
Oscar 16 25 Oct 04:22:59 04:27:19 29° 292° (WNW) 04:31:39 437.025 USB, Beacon 2401.1428
AO-7 25 Oct 04:25:55 04:28:41 12° 89° (E) 04:31:26 29.400 - 29.500 MHz
JAS-1B 25 Oct 04:36:30 04:42:46 42° 290° (WNW) 04:50:07 435.800 - 435.900 CW/SSB
Uribyol 2 25 Oct 04:42:31 04:47:28 45° 289° (WNW) 04:52:22 436.500 FM
PCSat 25 Oct 04:44:28 04:49:50 72° 114° (ESE) 04:55:15 145.825 MHz
ITAMSAT 1 25 Oct 04:48:38 04:53:33 42° 289° (WNW) 04:58:25 435.822 SSB
OPAL 25 Oct 05:09:23 05:13:10 21° 64° (ENE) 05:16:55 ?
Gurwin Techsat 1B 25 Oct 05:09:43 05:14:52 51° 288° (WNW) 05:19:59 435.225 FM
TMSAT-1 25 Oct 05:20:46 05:25:56 55° 287° (WNW) 05:31:05 436.925 FM
AO-27 25 Oct 05:35:47 05:38:53 16° 297° (WNW) 05:41:57 436.795 MHz FM
RS-15 25 Oct 05:36:53 05:43:59 18° 23° (NNE) 05:51:12 29.354 - 29.394 USB, Beacon 29.352 USB
JAS-2 25 Oct 05:59:27 06:04:52 20° 90° (E) 06:10:12 435.800 - 435.900 CW/SSB, 435.910 FM
Uosat F 25 Oct 06:00:58 06:05:53 50° 100° (E) 06:10:46 435.120 FM
Sapphire 25 Oct 06:06:27 06:10:56 26° 307° (NW) 06:15:28 437.095 MHz 1200 baud AX-25 AFSK
AO-7 25 Oct 06:14:14 06:22:35 76° 106° (ESE) 06:30:55 29.400 - 29.500 MHz
PCSat 25 Oct 06:30:24 06:33:49 17° 312° (NW) 06:37:14 145.825 MHz
OPAL 25 Oct 06:46:49 06:51:43 44° 259° (WSW) 06:56:35 ?
STRAND 1 25 Oct 06:54:09 06:57:59 22° 66° (ENE) 07:01:50 ?
Hamsat 25 Oct 07:00:41 07:04:16 27° 96° (E) 07:07:51 145.90 MHz
Uosat F 25 Oct 07:40:58 07:44:14 18° 296° (WNW) 07:47:29 435.120 FM
JAS-2 25 Oct 07:42:37 07:50:27 78° 286° (WNW) 07:58:11 435.800 - 435.900 CW/SSB, 435.910 FM
Saudisat 1A 25 Oct 07:48:39 07:52:24 29° 113° (ESE) 07:56:12 436.775 MHz
RS-15 25 Oct 07:48:49 07:59:43 54° 52° (NE) 08:11:02 29.354 - 29.394 USB, Beacon 29.352 USB
SO-67 25 Oct 08:01:06 08:02:49 13° 93° (E) 08:04:31 435.3500 MHz FM
AO-7 25 Oct 08:08:25 08:14:31 23° 304° (WNW) 08:20:38 29.400 - 29.500 MHz
PANSAT 25 Oct 08:20:23 08:22:52 17° 167° (SSE) 08:25:20 not established
STRAND 1 25 Oct 08:32:03 08:36:52 41° 261° (W) 08:41:43 ?
Hamsat 25 Oct 08:36:50 08:40:03 22° 290° (WNW) 08:43:16 145.90 MHz
Saudisat 1A 25 Oct 09:28:12 09:31:55 26° 309° (NW) 09:35:40 436.775 MHz
JAS-2 25 Oct 09:30:04 09:34:14 16° 303° (WNW) 09:38:25 435.800 - 435.900 CW/SSB, 435.910 FM
SO-67 25 Oct 09:32:51 09:35:49 27° 287° (WNW) 09:38:47 435.3500 MHz FM
MaSat-1 25 Oct 09:38:53 09:39:21 10° 55° (NE) 09:39:48 437.345 MHz
PANSAT 25 Oct 09:59:24 10:02:28 23° 180° (S) 10:05:32 not established
RS-15 25 Oct 10:01:33 10:11:48 43° 252° (WSW) 10:22:29 29.354 - 29.394 USB, Beacon 29.352 USB
HO-68 25 Oct 10:19:45 10:26:31 43° 99° (E) 10:33:14 435.675 MHz FM
Oscar 11 25 Oct 10:53:11 10:56:44 25° 96° (E) 11:00:16 145.825 FM, Beacon 2401.500 USB
MaSat-1 25 Oct 11:13:21 11:14:53 15° 254° (WSW) 11:16:22 437.345 MHz
Oscar 10/S400 25 Oct 11:25:37 11:49:25 20° 156° (SSE) 12:02:47 145.825 - 145.975 CW/USB, Beacon 145.810 USB
PANSAT 25 Oct 11:39:32 11:42:04 17° 192° (SSW) 11:44:37 not established
ZACube-1 25 Oct 11:43:41 11:47:38 37° 98° (E) 11:51:30 437.345 MHz
UKube-1 25 Oct 11:47:34 11:51:55 70° 285° (WNW) 11:56:15 145.840 MHz, 145.915 MHz
KITSAT 1 25 Oct 11:54:12 12:00:27 25° 104° (ESE) 12:06:42 435.175 FM
HO-68 25 Oct 12:07:42 12:14:00 34° 296° (WNW) 12:20:18 435.675 MHz FM
FUNcube-1 25 Oct 12:28:08 12:32:19 61° 285° (WNW) 12:36:25 145.950 - 145.970 MHz USB
Oscar 11 25 Oct 12:29:18 12:32:48 25° 290° (WNW) 12:36:17 145.825 FM, Beacon 2401.500 USB
ISS 25 Oct 12:53:37 12:56:42 37° 134° (SE) 12:59:49 145.800 FM
Sapphire 25 Oct 13:12:58 13:17:11 22° 51° (NE) 13:21:22 437.095 MHz 1200 baud AX-25 AFSK
Oscar 19 25 Oct 13:15:16 13:17:32 13° 62° (ENE) 13:19:48 437.125 CW, 437.150 USB
ZACube-1 25 Oct 13:21:07 13:23:41 16° 293° (WNW) 13:26:13 437.345 MHz
SO-50 25 Oct 13:31:01 13:35:22 56° 116° (ESE) 13:39:52 436.795 FM
JAS-1B 25 Oct 13:32:18 13:36:12 19° 64° (ENE) 13:40:00 435.800 - 435.900 CW/SSB
PCSat 25 Oct 13:34:57 13:39:56 35° 56° (NE) 13:44:52 145.825 MHz
KITSAT 1 25 Oct 13:47:12 13:55:11 64° 302° (WNW) 14:03:14 435.175 FM
AO-Echo 25 Oct 13:50:38 13:53:05 14° 63° (ENE) 13:55:34 ?
Oscar 16 25 Oct 13:58:20 14:02:59 35° 70° (ENE) 14:07:39 437.025 USB, Beacon 2401.1428
Uribyol 2 25 Oct 14:19:46 14:23:54 24° 67° (ENE) 14:28:03 436.500 FM
ITAMSAT 1 25 Oct 14:25:51 14:30:05 26° 67° (ENE) 14:34:21 435.822 SSB
ISS 25 Oct 14:30:45 14:33:28 23° 330° (NNW) 14:36:12 145.800 FM
Gurwin Techsat 1B 25 Oct 14:50:01 14:54:05 23° 66° (ENE) 14:58:10 435.225 FM
Oscar 19 25 Oct 14:51:06 14:56:14 72° 258° (WSW) 15:01:23 437.125 CW, 437.150 USB
UOSAT-12 25 Oct 14:51:18 14:55:24 33° 113° (ESE) 14:59:35 437.025 FM, 437.400 FM
Sapphire 25 Oct 14:55:37 15:00:52 50° 248° (WSW) 15:06:04 437.095 MHz 1200 baud AX-25 AFSK
TMSAT-1 25 Oct 15:00:58 15:04:53 21° 66° (ENE) 15:08:48 436.925 FM
AO-27 25 Oct 15:10:32 15:15:43 72° 74° (ENE) 15:20:56 436.795 MHz FM
SO-50 25 Oct 15:13:20 15:16:17 17° 314° (NW) 15:19:18 436.795 FM
PCSat 25 Oct 15:18:35 15:23:11 29° 252° (WSW) 15:27:45 145.825 MHz
JAS-1B 25 Oct 15:20:38 15:26:32 51° 259° (W) 15:32:03 435.800 - 435.900 CW/SSB
AO-7 25 Oct 15:22:18 15:27:08 17° 52° (NE) 15:31:57 29.400 - 29.500 MHz
AO-Echo 25 Oct 15:26:25 15:31:13 63° 259° (W) 15:36:13 ?
Oscar 16 25 Oct 15:38:13 15:42:22 24° 265° (W) 15:46:31 437.025 USB, Beacon 2401.1428
KITSAT 1 25 Oct 15:47:41 15:52:18 16° 324° (NW) 15:56:57 435.175 FM
Uribyol 2 25 Oct 15:58:19 16:03:08 37° 262° (W) 16:07:58 436.500 FM
ITAMSAT 1 25 Oct 16:04:40 16:09:23 35° 262° (W) 16:14:08 435.822 SSB
Saudisat 1A 25 Oct 16:17:58 16:20:31 15° 46° (NE) 16:23:04 436.775 MHz
Gurwin Techsat 1B 25 Oct 16:28:48 16:33:46 41° 262° (W) 16:38:46 435.225 FM
UOSAT-12 25 Oct 16:31:37 16:35:33 27° 310° (NW) 16:39:33 437.025 FM, 437.400 FM
TMSAT-1 25 Oct 16:39:26 16:44:27 44° 261° (W) 16:49:31 436.925 FM
AO-27 25 Oct 16:53:54 16:55:42 12° 269° (W) 16:57:30 436.795 MHz FM
AO-7 25 Oct 17:10:24 17:18:40 82° 71° (ENE) 17:26:58 29.400 - 29.500 MHz
Uosat F 25 Oct 17:11:55 17:16:48 55° 73° (ENE) 17:21:43 435.120 FM
JAS-2 25 Oct 17:52:46 17:58:07 36° 66° (ENE) 18:04:06 435.800 - 435.900 CW/SSB, 435.910 FM
Hamsat 25 Oct 17:52:56 17:55:24 15° 67° (ENE) 17:57:51 145.90 MHz
Saudisat 1A 25 Oct 17:56:07 18:00:29 62° 243° (WSW) 18:04:50 436.775 MHz
Uosat F 25 Oct 18:53:07 18:55:53 15° 268° (W) 18:58:40 435.120 FM
OPAL 25 Oct 18:58:47 19:03:40 58° 103° (ESE) 19:08:31 ?
AO-7 25 Oct 19:06:59 19:12:13 18° 267° (W) 19:17:30 29.400 - 29.500 MHz
ISS 25 Oct 19:24:20 19:27:02 22° 30° (NNE) 19:29:43 145.800 FM
Hamsat 25 Oct 19:27:04 19:31:00 39° 262° (W) 19:34:57 145.90 MHz
JAS-2 25 Oct 19:38:01 19:43:11 32° 266° (W) 19:48:57 435.800 - 435.900 CW/SSB, 435.910 FM
KITSAT 1 25 Oct 19:50:30 19:52:48 11° 28° (NNE) 19:55:06 435.175 FM
SO-67 25 Oct 20:02:31 20:05:53 58° 76° (ENE) 20:09:16 435.3500 MHz FM
OPAL 25 Oct 20:39:14 20:42:02 15° 299° (WNW) 20:44:50 ?
STRAND 1 25 Oct 20:44:35 20:49:46 81° 103° (ESE) 20:54:54 ?
HO-68 25 Oct 20:46:48 20:52:28 26° 61° (ENE) 20:58:08 435.675 MHz FM
ISS 25 Oct 21:00:40 21:03:49 39° 226° (SW) 21:06:56 145.800 FM
KITSAT 1 25 Oct 21:43:03 21:50:41 44° 53° (NE) 21:58:16 435.175 FM
Oscar 11 25 Oct 21:47:02 21:49:38 16° 67° (ENE) 21:52:14 145.825 FM, Beacon 2401.500 USB
SO-50 25 Oct 22:04:50 22:09:05 30° 52° (NE) 22:13:22 436.795 FM
RS-15 25 Oct 22:10:16 22:20:13 41° 108° (ESE) 22:30:01 29.354 - 29.394 USB, Beacon 29.352 USB
STRAND 1 25 Oct 22:26:33 22:28:13 12° 299° (WNW) 22:29:52 ?
